When you browse on this site, cookies collect data to enhance your experience and personalize the content and advertising you see.
Visit our Privacy Policy to learn more. By continuing to use the site, you agree to this use of cookies and data.
  • En España
  • Lista de países
  • Para 7 días
  • Temperatura del agua
  • Mapa Satelital
  • El tiempo en el mapa
  • Informadores
  • user-avatar
    Iniciar sesión

    Tiempo cada hora Alan-Polyan

    Hoy, 16 Enero, Miércoles

    Tiempo Temperatura Precipitaciones Viento Presión Humedad
    00:00 -4°C° 0.2 mm 6 mps 741 mmHg 91%
    01:00 -3°C° 0.1 mm 6 mps 741 mmHg 92%
    02:00 -3°C° 0.1 mm 6 mps 742 mmHg 92%
    03:00 -2°C° 0.1 mm 5 mps 742 mmHg 92%
    04:00 -2°C° 0.1 mm 5 mps 742 mmHg 92%
    05:00 -3°C° 0.1 mm 6 mps 741 mmHg 92%
    06:00 -3°C° 0.1 mm 6 mps 741 mmHg 92%
    07:00 -4°C° 0.1 mm 6 mps 741 mmHg 92%
    08:00 -4°C° 0.1 mm 7 mps 741 mmHg 92%
    09:00 -6°C° 0.1 mm 7 mps 741 mmHg 92%
    10:00 -7°C° 0.6 mm 7 mps 740 mmHg 92%
    11:00 -7°C° 0.6 mm 8 mps 740 mmHg 92%
    12:00 -8°C° 0.6 mm 8 mps 739 mmHg 92%
    13:00 -8°C° 0.6 mm 8 mps 739 mmHg 89%
    14:00 -10°C° 0.6 mm 9 mps 738 mmHg 86%
    15:00 -10°C° 0.6 mm 9 mps 738 mmHg 84%
    16:00 -8°C° 0.8 mm 8 mps 737 mmHg 86%
    17:00 -8°C° 0.8 mm 8 mps 737 mmHg 88%
    18:00 -8°C° 0.8 mm 8 mps 737 mmHg 90%
    19:00 -7°C° 0.9 mm 8 mps 736 mmHg 90%
    20:00 -7°C° 0.9 mm 8 mps 736 mmHg 90%
    21:00 -6°C° 0.9 mm 8 mps 735 mmHg 90%
    22:00 -6°C° 0.2 mm 8 mps 735 mmHg 90%
    23:00 -5°C° 0.2 mm 9 mps 734 mmHg 89%

    Mañana, 17 Enero, Jueves

    Tiempo Temperatura Precipitaciones Viento Presión Humedad
    00:00 -5°C° 0.2 mm 9 mps 734 mmHg 89%
    01:00 -5°C° 0.2 mm 9 mps 735 mmHg 89%
    02:00 -6°C° 0.2 mm 9 mps 735 mmHg 89%
    03:00 -6°C° 0.2 mm 9 mps 735 mmHg 89%
    04:00 -8°C° 0 mm 8 mps 737 mmHg 89%
    05:00 -10°C° 0 mm 8 mps 738 mmHg 89%
    06:00 -12°C° 0 mm 7 mps 739 mmHg 89%
    07:00 -11°C° 0 mm 6 mps 740 mmHg 90%
    08:00 -12°C° 0 mm 6 mps 741 mmHg 90%
    09:00 -13°C° 0 mm 5 mps 742 mmHg 90%
    10:00 -13°C° 0 mm 5 mps 743 mmHg 91%
    11:00 -13°C° 0 mm 5 mps 743 mmHg 91%
    12:00 -12°C° 0 mm 4 mps 743 mmHg 91%
    13:00 -14°C° 0 mm 4 mps 743 mmHg 92%
    14:00 -16°C° 0 mm 4 mps 744 mmHg 94%
    15:00 -16°C° 0 mm 3 mps 744 mmHg 95%
    16:00 -17°C° 0 mm 4 mps 744 mmHg 95%
    17:00 -16°C° 0 mm 4 mps 744 mmHg 95%
    18:00 -16°C° 0 mm 4 mps 745 mmHg 95%
    19:00 -16°C° 0 mm 4 mps 745 mmHg 95%
    20:00 -15°C° 0 mm 4 mps 745 mmHg 94%
    21:00 -15°C° 0 mm 4 mps 745 mmHg 94%
    22:00 -15°C° 0 mm 5 mps 745 mmHg 94%
    23:00 -15°C° 0 mm 5 mps 745 mmHg 94%

    Pasado mañana, 18 Enero, Viernes

    Tiempo Temperatura Precipitaciones Viento Presión Humedad
    00:00 -15°C° 0 mm 5 mps 744 mmHg 94%
    01:00 -15°C° 0 mm 5 mps 744 mmHg 93%
    02:00 -17°C° 0 mm 6 mps 744 mmHg 92%
    03:00 -17°C° 0 mm 6 mps 744 mmHg 92%
    04:00 -16°C° 0 mm 6 mps 743 mmHg 91%
    05:00 -17°C° 0 mm 7 mps 743 mmHg 91%
    06:00 -15°C° 0 mm 7 mps 742 mmHg 90%
    07:00 -14°C° 0.1 mm 7 mps 742 mmHg 89%
    08:00 -13°C° 0.1 mm 7 mps 742 mmHg 89%
    09:00 -12°C° 0.1 mm 8 mps 742 mmHg 89%
    10:00 -11°C° 0.1 mm 7 mps 742 mmHg 89%
    11:00 -9°C° 0.1 mm 7 mps 742 mmHg 89%
    12:00 -9°C° 0.1 mm 7 mps 742 mmHg 89%
    13:00 -8°C° 0 mm 7 mps 743 mmHg 89%
    14:00 -8°C° 0 mm 7 mps 743 mmHg 90%
    15:00 -8°C° 0 mm 6 mps 743 mmHg 90%
    16:00 -8°C° 0 mm 7 mps 742 mmHg 91%
    17:00 -8°C° 0 mm 7 mps 742 mmHg 91%
    18:00 -8°C° 0 mm 7 mps 742 mmHg 91%
    19:00 -8°C° 0 mm 7 mps 742 mmHg 91%
    20:00 -8°C° 0 mm 7 mps 742 mmHg 92%
    21:00 -7°C° 0 mm 7 mps 741 mmHg 92%
    22:00 -7°C° 0 mm 7 mps 741 mmHg 91%
    23:00 -7°C° 0 mm 7 mps 741 mmHg 91%

    19 Enero, Sábado

    Tiempo Temperatura Precipitaciones Viento Presión Humedad
    00:00 -6°C° 0 mm 7 mps 741 mmHg 91%
    01:00 -6°C° 0.1 mm 7 mps 741 mmHg 91%
    02:00 -6°C° 0.1 mm 7 mps 741 mmHg 91%
    03:00 -7°C° 0.1 mm 7 mps 741 mmHg 92%
    04:00 -6°C° 0.2 mm 7 mps 740 mmHg 92%
    05:00 -6°C° 0.2 mm 7 mps 740 mmHg 92%
    06:00 -6°C° 0.2 mm 7 mps 740 mmHg 92%
    07:00 -5°C° 0.1 mm 6 mps 740 mmHg 92%
    08:00 -4°C° 0.1 mm 6 mps 740 mmHg 92%
    09:00 -4°C° 0.1 mm 6 mps 740 mmHg 92%
    10:00 -4°C° 0.1 mm 6 mps 740 mmHg 91%
    11:00 -4°C° 0.1 mm 5 mps 740 mmHg 90%
    12:00 -4°C° 0.1 mm 5 mps 740 mmHg 89%
    13:00 -5°C° 0 mm 5 mps 741 mmHg 89%
    14:00 -7°C° 0 mm 5 mps 741 mmHg 90%
    15:00 -8°C° 0 mm 5 mps 741 mmHg 90%
    16:00 -8°C° 0.1 mm 5 mps 741 mmHg 89%
    17:00 -10°C° 0.1 mm 5 mps 742 mmHg 87%
    18:00 -10°C° 0.1 mm 5 mps 742 mmHg 86%
    19:00 -11°C° 0 mm 5 mps 742 mmHg 87%
    20:00 -11°C° 0 mm 5 mps 742 mmHg 88%
    21:00 -12°C° 0 mm 5 mps 743 mmHg 89%
    22:00 -13°C° 0 mm 5 mps 743 mmHg 90%
    23:00 -13°C° 0 mm 5 mps 743 mmHg 91%

    20 Enero, Domingo

    Tiempo Temperatura Precipitaciones Viento Presión Humedad
    00:00 -14°C° 0 mm 5 mps 743 mmHg 93%
    01:00 -14°C° 0 mm 5 mps 743 mmHg 93%
    02:00 -14°C° 0 mm 5 mps 743 mmHg 93%
    03:00 -14°C° 0 mm 5 mps 743 mmHg 93%
    04:00 -14°C° 0 mm 5 mps 743 mmHg 93%
    05:00 -13°C° 0 mm 5 mps 743 mmHg 93%
    06:00 -13°C° 0 mm 5 mps 743 mmHg 92%
    07:00 -13°C° 0 mm 5 mps 743 mmHg 91%
    08:00 -12°C° 0 mm 5 mps 744 mmHg 90%
    09:00 -12°C° 0 mm 6 mps 744 mmHg 88%
    10:00 -12°C° 0 mm 6 mps 744 mmHg 88%
    11:00 -12°C° 0 mm 6 mps 744 mmHg 87%
    12:00 -13°C° 0 mm 7 mps 744 mmHg 87%
    13:00 -13°C° 0.1 mm 7 mps 744 mmHg 87%
    14:00 -12°C° 0.1 mm 6 mps 745 mmHg 87%
    15:00 -12°C° 0.1 mm 6 mps 745 mmHg 88%
    16:00 -12°C° 0 mm 6 mps 745 mmHg 88%
    17:00 -12°C° 0 mm 6 mps 745 mmHg 88%
    18:00 -12°C° 0 mm 6 mps 746 mmHg 89%
    19:00 -12°C° 0 mm 6 mps 746 mmHg 89%
    20:00 -14°C° 0 mm 6 mps 746 mmHg 89%
    21:00 -14°C° 0 mm 6 mps 747 mmHg 90%
    22:00 -15°C° 0 mm 6 mps 747 mmHg 91%
    23:00 -15°C° 0 mm 5 mps 747 mmHg 92%

    21 Enero, Lunes

    Tiempo Temperatura Precipitaciones Viento Presión Humedad
    00:00 -17°C° 0 mm 5 mps 748 mmHg 93%
    01:00 -17°C° 0 mm 5 mps 748 mmHg 94%
    02:00 -16°C° 0 mm 4 mps 748 mmHg 94%
    03:00 -17°C° 0 mm 4 mps 749 mmHg 95%
    04:00 -16°C° 0 mm 4 mps 749 mmHg 95%
    05:00 -16°C° 0 mm 4 mps 749 mmHg 95%
    06:00 -16°C° 0 mm 4 mps 749 mmHg 96%
    07:00 -16°C° 0 mm 4 mps 750 mmHg 96%
    08:00 -16°C° 0 mm 4 mps 750 mmHg 95%
    09:00 -16°C° 0 mm 4 mps 751 mmHg 95%
    10:00 -16°C° 0 mm 4 mps 751 mmHg 95%
    11:00 -16°C° 0 mm 4 mps 751 mmHg 95%
    12:00 -15°C° 0 mm 3 mps 751 mmHg 95%
    13:00 -15°C° 0 mm 3 mps 751 mmHg 95%
    14:00 -15°C° 0 mm 3 mps 751 mmHg 95%
    15:00 -14°C° 0 mm 2 mps 750 mmHg 95%
    16:00 -15°C° 0.1 mm 3 mps 750 mmHg 95%
    17:00 -15°C° 0.1 mm 3 mps 750 mmHg 96%
    18:00 -15°C° 0.1 mm 3 mps 750 mmHg 96%
    19:00 -14°C° 0.3 mm 3 mps 749 mmHg 96%
    20:00 -14°C° 0.3 mm 3 mps 749 mmHg 96%
    21:00 -14°C° 0.3 mm 3 mps 748 mmHg 96%
    22:00 -14°C° 0.3 mm 3 mps 748 mmHg 96%
    23:00 -14°C° 0.3 mm 3 mps 747 mmHg 96%
    Mostrar más